Time,TemperatureF,DewpointF,PressureIn,WindDirection,WindDirectionDegrees,WindSpeedMPH,WindSpeedGustMPH,Humidity,HourlyPrecipIn,Conditions,Clouds,dailyrainin,SoftwareType,DateUTC
2013-08-02 00:04:00,64.4,64.6,29.79,North,-999,-999.0,-999.0,100,0.00,,,0.00,tws,2013-08-02 04:04:00,
2013-08-02 00:09:00,64.3,64.4,29.79,North,-999,-999.0,-999.0,100,0.00,,,0.00,tws,2013-08-02 04:09:00,
2013-08-02 00:14:00,64.3,64.5,29.80,North,-999,-999.0,-999.0,100,0.00,,,0.00,tws,2013-08-02 04:14:00,
2013-08-02 00:19:00,64.2,64.3,29.79,North,-999,-999.0,-999.0,100,0.00,,,0.00,tws,2013-08-02 04:19:00,
2013-08-02 00:24:00,64.1,64.3,29.79,North,-999,-999.0,-999.0,100,0.00,,,0.00,tws,2013-08-02 04:24:00,
2013-08-02 00:29:00,64.0,64.3,29.80,North,-999,-999.0,-999.0,100,0.00,,,0.00,tws,2013-08-02 04:29:00,
2013-08-02 00:34:00,64.0,64.3,29.79,North,-999,-999.0,-999.0,100,0.00,,,0.00,tws,2013-08-02 04:34:00,
2013-08-02 00:39:00,63.9,64.1,29.80,North,-999,-999.0,-999.0,100,0.00,,,0.00,tws,2013-08-02 04:39:00,
2013-08-02 00:44:00,63.9,64.1,29.79,North,-999,-999.0,-999.0,100,0.00,,,0.00,tws,2013-08-02 04:44:00,
2013-08-02 00:49:00,63.8,64.1,29.79,North,-999,-999.0,-999.0,100,0.00,,,0.00,tws,2013-08-02 04:49:00,
2013-08-02 00:54:00,63.8,64.0,29.79,North,-999,-999.0,-999.0,100,0.00,,,0.00,tws,2013-08-02 04:54:00,
2013-08-02 00:59:00,63.7,63.9,29.79,North,-999,-999.0,-999.0,100,0.00,,,0.00,tws,2013-08-02 04:59:00,
2013-08-02 01:04:00,63.5,63.7,29.79,North,-999,-999.0,-999.0,100,0.00,,,0.00,tws,2013-08-02 05:04:00,
2013-08-02 01:09:00,63.5,63.8,29.80,North,-999,-999.0,-999.0,100,0.00,,,0.00,tws,2013-08-02 05:09:00,
2013-08-02 01:14:00,63.4,63.6,29.80,North,-999,-999.0,-999.0,100,0.00,,,0.00,tws,2013-08-02 05:14:00,
2013-08-02 01:19:00,63.3,63.5,29.80,North,-999,-999.0,-999.0,100,0.00,,,0.00,tws,2013-08-02 05:19:00,
2013-08-02 01:24:00,63.3,63.6,29.80,North,-999,-999.0,-999.0,100,0.00,,,0.00,tws,2013-08-02 05:24:00,
2013-08-02 01:29:00,63.4,63.7,29.79,North,-999,-999.0,-999.0,101,0.00,,,0.00,tws,2013-08-02 05:29:00,
2013-08-02 01:34:00,63.3,63.6,29.79,North,-999,-999.0,-999.0,101,0.00,,,0.00,tws,2013-08-02 05:34:00,
2013-08-02 01:39:00,63.3,63.5,29.79,North,-999,-999.0,-999.0,100,0.00,,,0.00,tws,2013-08-02 05:39:00,
2013-08-02 01:44:00,63.1,63.4,29.79,North,-999,-999.0,-999.0,101,0.00,,,0.00,tws,2013-08-02 05:44:00,
2013-08-02 01:49:00,63.0,63.3,29.79,North,-999,-999.0,-999.0,101,0.00,,,0.00,tws,2013-08-02 05:49:00,
2013-08-02 01:54:00,62.8,63.1,29.79,North,-999,-999.0,-999.0,101,0.00,,,0.00,tws,2013-08-02 05:54:00,
2013-08-02 01:59:00,62.7,63.0,29.79,North,-999,-999.0,-999.0,101,0.00,,,0.00,tws,2013-08-02 05:59:00,
2013-08-02 02:04:00,62.8,63.1,29.79,North,-999,-999.0,-999.0,101,0.00,,,0.00,tws,2013-08-02 06:04:00,
2013-08-02 02:09:00,62.8,63.1,29.79,North,-999,-999.0,-999.0,101,0.00,,,0.00,tws,2013-08-02 06:09:00,
2013-08-02 02:14:00,62.7,63.0,29.79,North,-999,-999.0,-999.0,101,0.00,,,0.00,tws,2013-08-02 06:14:00,
2013-08-02 02:19:00,62.5,62.9,29.79,North,-999,-999.0,-999.0,101,0.00,,,0.00,tws,2013-08-02 06:19:00,
2013-08-02 02:24:00,62.4,62.7,29.79,North,-999,-999.0,-999.0,101,0.00,,,0.00,tws,2013-08-02 06:24:00,
2013-08-02 02:29:00,62.3,62.7,29.79,North,-999,-999.0,-999.0,101,0.00,,,0.00,tws,2013-08-02 06:29:00,
2013-08-02 02:34:00,62.3,62.6,29.79,North,-999,-999.0,-999.0,101,0.00,,,0.00,tws,2013-08-02 06:34:00,
2013-08-02 02:39:00,62.3,62.6,29.78,North,-999,-999.0,-999.0,101,0.00,,,0.00,tws,2013-08-02 06:39:00,
2013-08-02 02:44:00,62.2,62.6,29.79,North,-999,-999.0,-999.0,101,0.00,,,0.00,tws,2013-08-02 06:44:00,
2013-08-02 02:49:00,62.2,62.5,29.78,North,-999,-999.0,-999.0,101,0.00,,,0.00,tws,2013-08-02 06:49:00,
2013-08-02 02:54:00,62.2,62.5,29.78,North,-999,-999.0,-999.0,101,0.00,,,0.00,tws,2013-08-02 06:54:00,
2013-08-02 02:59:00,62.2,62.6,29.78,North,-999,-999.0,-999.0,101,0.00,,,0.00,tws,2013-08-02 06:59:00,
2013-08-02 03:04:00,62.3,62.6,29.77,North,-999,-999.0,-999.0,101,0.00,,,0.00,tws,2013-08-02 07:04:00,
2013-08-02 03:09:00,62.2,62.5,29.77,North,-999,-999.0,-999.0,101,0.00,,,0.00,tws,2013-08-02 07:09:00,
2013-08-02 03:14:00,62.2,62.6,29.77,North,-999,-999.0,-999.0,101,0.00,,,0.00,tws,2013-08-02 07:14:00,
2013-08-02 03:19:00,62.2,62.6,29.77,North,-999,-999.0,-999.0,101,0.00,,,0.00,tws,2013-08-02 07:19:00,
2013-08-02 03:24:00,62.2,62.6,29.77,North,-999,-999.0,-999.0,101,0.00,,,0.00,tws,2013-08-02 07:24:00,
2013-08-02 03:29:00,62.3,62.7,29.77,North,-999,-999.0,-999.0,101,0.00,,,0.00,tws,2013-08-02 07:29:00,
2013-08-02 03:34:00,62.4,62.6,29.77,North,-999,-999.0,-999.0,101,0.00,,,0.00,tws,2013-08-02 07:34:00,
2013-08-02 03:39:00,62.4,62.7,29.77,North,-999,-999.0,-999.0,101,0.00,,,0.00,tws,2013-08-02 07:39:00,
2013-08-02 03:44:00,62.3,62.6,29.77,North,-999,-999.0,-999.0,101,0.00,,,0.00,tws,2013-08-02 07:44:00,
2013-08-02 03:49:00,62.3,62.7,29.77,North,-999,-999.0,-999.0,101,0.00,,,0.00,tws,2013-08-02 07:49:00,
2013-08-02 03:54:00,62.2,62.5,29.77,North,-999,-999.0,-999.0,101,0.00,,,0.00,tws,2013-08-02 07:54:00,
2013-08-02 03:59:00,62.0,62.3,29.77,North,-999,-999.0,-999.0,101,0.00,,,0.00,tws,2013-08-02 07:59:00,
2013-08-02 04:04:00,61.9,62.3,29.77,North,-999,-999.0,-999.0,101,0.00,,,0.00,tws,2013-08-02 08:04:00,
2013-08-02 04:09:00,61.7,62.1,29.77,North,-999,-999.0,-999.0,101,0.00,,,0.00,tws,2013-08-02 08:09:00,
2013-08-02 04:14:00,61.7,62.1,29.77,North,-999,-999.0,-999.0,101,0.00,,,0.00,tws,2013-08-02 08:14:00,
2013-08-02 04:19:00,61.8,62.1,29.77,North,-999,-999.0,-999.0,101,0.00,,,0.00,tws,2013-08-02 08:19:00,
2013-08-02 04:24:00,61.7,62.1,29.77,North,-999,-999.0,-999.0,101,0.00,,,0.00,tws,2013-08-02 08:24:00,
2013-08-02 04:29:00,61.7,62.1,29.78,North,-999,-999.0,-999.0,101,0.00,,,0.00,tws,2013-08-02 08:29:00,
2013-08-02 04:34:00,61.6,61.9,29.78,North,-999,-999.0,-999.0,101,0.00,,,0.00,tws,2013-08-02 08:34:00,
2013-08-02 04:39:00,61.5,61.8,29.78,North,-999,-999.0,-999.0,101,0.00,,,0.00,tws,2013-08-02 08:39:00,
2013-08-02 04:44:00,61.4,61.8,29.78,North,-999,-999.0,-999.0,101,0.00,,,0.00,tws,2013-08-02 08:44:00,
2013-08-02 04:49:00,61.3,61.7,29.78,North,-999,-999.0,-999.0,101,0.00,,,0.00,tws,2013-08-02 08:49:00,
2013-08-02 04:54:00,61.2,61.6,29.78,North,-999,-999.0,-999.0,101,0.00,,,0.00,tws,2013-08-02 08:54:00,
2013-08-02 04:59:00,61.2,61.6,29.77,North,-999,-999.0,-999.0,101,0.00,,,0.00,tws,2013-08-02 08:59:00,
2013-08-02 05:04:00,61.2,61.7,29.78,North,-999,-999.0,-999.0,101,0.00,,,0.00,tws,2013-08-02 09:04:00,
2013-08-02 05:09:00,61.2,61.7,29.78,North,-999,-999.0,-999.0,101,0.00,,,0.00,tws,2013-08-02 09:09:00,
2013-08-02 05:14:00,61.2,61.6,29.78,North,-999,-999.0,-999.0,101,0.00,,,0.00,tws,2013-08-02 09:14:00,
2013-08-02 05:19:00,61.3,61.7,29.78,North,-999,-999.0,-999.0,101,0.00,,,0.00,tws,2013-08-02 09:19:00,
2013-08-02 05:24:00,61.5,61.8,29.78,North,-999,-999.0,-999.0,101,0.00,,,0.00,tws,2013-08-02 09:24:00,
2013-08-02 05:29:00,61.5,61.8,29.79,North,-999,-999.0,-999.0,101,0.00,,,0.00,tws,2013-08-02 09:29:00,
2013-08-02 05:34:00,61.5,61.8,29.79,North,-999,-999.0,-999.0,101,0.00,,,0.00,tws,2013-08-02 09:34:00,
2013-08-02 05:39:00,61.5,61.8,29.79,North,-999,-999.0,-999.0,101,0.00,,,0.00,tws,2013-08-02 09:39:00,
2013-08-02 05:44:00,61.5,61.8,29.79,North,-999,-999.0,-999.0,101,0.00,,,0.00,tws,2013-08-02 09:44:00,
2013-08-02 05:49:00,61.4,61.7,29.79,North,-999,-999.0,-999.0,101,0.00,,,0.00,tws,2013-08-02 09:49:00,
2013-08-02 05:54:00,61.3,61.6,29.79,North,-999,-999.0,-999.0,101,0.00,,,0.00,tws,2013-08-02 09:54:00,
2013-08-02 05:59:00,61.2,61.6,29.80,North,-999,-999.0,-999.0,101,0.00,,,0.00,tws,2013-08-02 09:59:00,
2013-08-02 06:04:00,61.2,61.6,29.80,North,-999,-999.0,-999.0,101,0.00,,,0.00,tws,2013-08-02 10:04:00,
2013-08-02 06:09:00,61.1,61.5,29.80,North,-999,-999.0,-999.0,101,0.00,,,0.00,tws,2013-08-02 10:09:00,
2013-08-02 06:14:00,61.1,61.4,29.80,North,-999,-999.0,-999.0,101,0.00,,,0.00,tws,2013-08-02 10:14:00,
2013-08-02 06:19:00,61.0,61.3,29.80,North,-999,-999.0,-999.0,101,0.00,,,0.00,tws,2013-08-02 10:19:00,
2013-08-02 06:24:00,61.0,61.3,29.80,North,-999,-999.0,-999.0,101,0.00,,,0.00,tws,2013-08-02 10:24:00,
2013-08-02 06:29:00,61.0,61.3,29.80,North,-999,-999.0,-999.0,101,0.00,,,0.00,tws,2013-08-02 10:29:00,
2013-08-02 06:34:00,61.0,61.3,29.80,North,-999,-999.0,-999.0,101,0.00,,,0.00,tws,2013-08-02 10:34:00,
2013-08-02 06:39:00,61.0,61.4,29.80,North,-999,-999.0,-999.0,101,0.00,,,0.00,tws,2013-08-02 10:39:00,
2013-08-02 06:44:00,61.0,61.3,29.80,North,-999,-999.0,-999.0,101,0.00,,,0.00,tws,2013-08-02 10:44:00,
2013-08-02 06:49:00,60.9,61.2,29.80,North,-999,-999.0,-999.0,101,0.00,,,0.00,tws,2013-08-02 10:49:00,
2013-08-02 06:54:00,60.9,61.2,29.80,North,-999,-999.0,-999.0,101,0.00,,,0.00,tws,2013-08-02 10:54:00,
2013-08-02 06:59:00,60.9,61.2,29.80,North,-999,-999.0,-999.0,101,0.00,,,0.00,tws,2013-08-02 10:59:00,
2013-08-02 07:04:00,60.9,61.2,29.80,North,-999,-999.0,-999.0,101,0.00,,,0.00,tws,2013-08-02 11:04:00,
2013-08-02 07:09:00,60.9,61.3,29.80,North,-999,-999.0,-999.0,101,0.00,,,0.00,tws,2013-08-02 11:09:00,
2013-08-02 07:14:00,60.9,61.3,29.81,North,-999,-999.0,-999.0,101,0.00,,,0.00,tws,2013-08-02 11:14:00,
2013-08-02 07:19:00,60.8,61.2,29.82,North,-999,-999.0,-999.0,101,0.00,,,0.00,tws,2013-08-02 11:19:00,
2013-08-02 07:24:00,60.8,61.2,29.82,North,-999,-999.0,-999.0,101,0.00,,,0.00,tws,2013-08-02 11:24:00,
2013-08-02 07:29:00,60.9,61.2,29.82,North,-999,-999.0,-999.0,101,0.00,,,0.00,tws,2013-08-02 11:29:00,
2013-08-02 07:34:00,61.0,61.3,29.82,North,-999,-999.0,-999.0,101,0.00,,,0.00,tws,2013-08-02 11:34:00,
2013-08-02 07:39:00,61.1,61.4,29.82,North,-999,-999.0,-999.0,101,0.00,,,0.00,tws,2013-08-02 11:39:00,
2013-08-02 07:44:00,61.3,61.6,29.83,North,-999,-999.0,-999.0,101,0.00,,,0.00,tws,2013-08-02 11:44:00,
2013-08-02 07:49:00,61.4,61.7,29.83,North,-999,-999.0,-999.0,101,0.00,,,0.00,tws,2013-08-02 11:49:00,
2013-08-02 07:54:00,61.6,61.8,29.82,North,-999,-999.0,-999.0,101,0.00,,,0.00,tws,2013-08-02 11:54:00,
2013-08-02 07:59:00,61.7,61.9,29.83,North,-999,-999.0,-999.0,100,0.00,,,0.00,tws,2013-08-02 11:59:00,
2013-08-02 08:04:00,61.9,62.1,29.83,North,-999,-999.0,-999.0,100,0.00,,,0.00,tws,2013-08-02 12:04:00,
2013-08-02 08:09:00,62.1,62.3,29.83,North,-999,-999.0,-999.0,100,0.00,,,0.00,tws,2013-08-02 12:09:00,
2013-08-02 08:14:00,62.3,62.5,29.83,North,-999,-999.0,-999.0,100,0.00,,,0.00,tws,2013-08-02 12:14:00,
2013-08-02 08:19:00,62.5,62.7,29.83,North,-999,-999.0,-999.0,100,0.00,,,0.00,tws,2013-08-02 12:19:00,
2013-08-02 08:24:00,62.7,62.8,29.82,North,-999,-999.0,-999.0,100,0.00,,,0.00,tws,2013-08-02 12:24:00,
2013-08-02 08:29:00,62.9,63.0,29.83,North,-999,-999.0,-999.0,100,0.00,,,0.00,tws,2013-08-02 12:29:00,
2013-08-02 08:34:00,63.0,63.1,29.83,North,-999,-999.0,-999.0,100,0.00,,,0.00,tws,2013-08-02 12:34:00,
2013-08-02 08:39:00,63.1,63.3,29.83,North,-999,-999.0,-999.0,100,0.00,,,0.00,tws,2013-08-02 12:39:00,
2013-08-02 08:44:00,63.3,63.4,29.83,North,-999,-999.0,-999.0,100,0.00,,,0.00,tws,2013-08-02 12:44:00,
2013-08-02 08:49:00,63.5,63.6,29.83,North,-999,-999.0,-999.0,100,0.00,,,0.00,tws,2013-08-02 12:49:00,
2013-08-02 08:54:00,63.7,63.8,29.84,North,-999,-999.0,-999.0,100,0.00,,,0.00,tws,2013-08-02 12:54:00,
2013-08-02 08:59:00,63.8,64.0,29.84,North,-999,-999.0,-999.0,100,0.00,,,0.00,tws,2013-08-02 12:59:00,
2013-08-02 09:04:00,63.8,64.0,29.84,North,-999,-999.0,-999.0,100,0.00,,,0.00,tws,2013-08-02 13:04:00,
2013-08-02 09:09:00,63.8,64.0,29.84,North,-999,-999.0,-999.0,100,0.00,,,0.00,tws,2013-08-02 13:09:00,
2013-08-02 09:14:00,63.8,64.1,29.84,North,-999,-999.0,-999.0,100,0.00,,,0.00,tws,2013-08-02 13:14:00,
2013-08-02 09:19:00,63.8,64.1,29.84,North,-999,-999.0,-999.0,100,0.00,,,0.00,tws,2013-08-02 13:19:00,
2013-08-02 09:24:00,64.0,64.2,29.84,North,-999,-999.0,-999.0,100,0.00,,,0.00,tws,2013-08-02 13:24:00,
2013-08-02 09:29:00,64.2,64.4,29.84,North,-999,-999.0,-999.0,100,0.00,,,0.00,tws,2013-08-02 13:29:00,
2013-08-02 09:34:00,64.6,64.7,29.84,North,-999,-999.0,-999.0,100,0.00,,,0.00,tws,2013-08-02 13:34:00,
2013-08-02 09:39:00,64.8,64.9,29.84,North,-999,-999.0,-999.0,100,0.00,,,0.00,tws,2013-08-02 13:39:00,
2013-08-02 09:44:00,64.9,65.1,29.85,North,-999,-999.0,-999.0,100,0.00,,,0.00,tws,2013-08-02 13:44:00,
2013-08-02 09:49:00,65.2,65.5,29.85,North,-999,-999.0,-999.0,100,0.00,,,0.00,tws,2013-08-02 13:49:00,
2013-08-02 09:54:00,65.5,65.8,29.85,North,-999,-999.0,-999.0,100,0.00,,,0.00,tws,2013-08-02 13:54:00,
2013-08-02 09:59:00,65.8,66.0,29.85,North,-999,-999.0,-999.0,100,0.00,,,0.00,tws,2013-08-02 13:59:00,
2013-08-02 10:04:00,66.2,66.4,29.85,North,-999,-999.0,-999.0,100,0.00,,,0.00,tws,2013-08-02 14:04:00,
2013-08-02 10:09:00,66.7,66.9,29.84,North,-999,-999.0,-999.0,100,0.00,,,0.00,tws,2013-08-02 14:09:00,
2013-08-02 10:14:00,66.9,67.0,29.84,North,-999,-999.0,-999.0,100,0.00,,,0.00,tws,2013-08-02 14:14:00,
2013-08-02 10:19:00,67.3,67.3,29.85,North,-999,-999.0,-999.0,100,0.00,,,0.00,tws,2013-08-02 14:19:00,
2013-08-02 10:24:00,67.7,67.6,29.85,North,-999,-999.0,-999.0,99,0.00,,,0.00,tws,2013-08-02 14:24:00,
2013-08-02 10:29:00,68.3,67.8,29.85,North,-999,-999.0,-999.0,98,0.00,,,0.00,tws,2013-08-02 14:29:00,
2013-08-02 10:34:00,68.9,68.1,29.85,North,-999,-999.0,-999.0,97,0.00,,,0.00,tws,2013-08-02 14:34:00,
2013-08-02 10:39:00,69.5,68.5,29.85,North,-999,-999.0,-999.0,96,0.00,,,0.00,tws,2013-08-02 14:39:00,
2013-08-02 10:44:00,69.8,68.5,29.85,North,-999,-999.0,-999.0,95,0.00,,,0.00,tws,2013-08-02 14:44:00,
2013-08-02 10:49:00,70.2,68.2,29.85,North,-999,-999.0,-999.0,93,0.00,,,0.00,tws,2013-08-02 14:49:00,
2013-08-02 10:54:00,70.6,68.8,29.85,North,-999,-999.0,-999.0,93,0.00,,,0.00,tws,2013-08-02 14:54:00,
2013-08-02 10:59:00,71.1,69.4,29.86,North,-999,-999.0,-999.0,94,0.00,,,0.00,tws,2013-08-02 14:59:00,
2013-08-02 11:04:00,71.4,69.0,29.86,North,-999,-999.0,-999.0,92,0.00,,,0.00,tws,2013-08-02 15:04:00,
2013-08-02 11:10:00,71.7,68.6,29.85,North,-999,-999.0,-999.0,89,0.00,,,0.00,tws,2013-08-02 15:10:00,
2013-08-02 11:19:00,72.2,68.4,29.85,North,-999,-999.0,-999.0,87,0.00,,,0.00,tws,2013-08-02 15:19:00,
2013-08-02 11:24:00,72.6,68.6,29.85,North,-999,-999.0,-999.0,87,0.00,,,0.00,tws,2013-08-02 15:24:00,
2013-08-02 11:29:00,72.9,68.6,29.85,North,-999,-999.0,-999.0,86,0.00,,,0.00,tws,2013-08-02 15:29:00,
2013-08-02 11:34:00,73.1,68.6,29.84,North,-999,-999.0,-999.0,85,0.00,,,0.00,tws,2013-08-02 15:34:00,
2013-08-02 11:39:00,73.5,67.0,29.84,North,-999,-999.0,-999.0,79,0.00,,,0.00,tws,2013-08-02 15:39:00,
2013-08-02 11:44:00,73.9,66.3,29.84,North,-999,-999.0,-999.0,76,0.00,,,0.00,tws,2013-08-02 15:44:00,
2013-08-02 11:49:00,74.3,66.2,29.84,North,-999,-999.0,-999.0,75,0.00,,,0.00,tws,2013-08-02 15:49:00,
2013-08-02 11:54:00,74.5,66.9,29.84,North,-999,-999.0,-999.0,76,0.00,,,0.00,tws,2013-08-02 15:54:00,
2013-08-02 11:59:00,74.8,67.4,29.84,North,-999,-999.0,-999.0,77,0.00,,,0.00,tws,2013-08-02 15:59:00,
2013-08-02 12:04:00,75.0,67.6,29.84,North,-999,-999.0,-999.0,77,0.00,,,0.00,tws,2013-08-02 16:04:00,
2013-08-02 12:09:00,75.3,68.6,29.84,North,-999,-999.0,-999.0,79,0.00,,,0.00,tws,2013-08-02 16:09:00,
2013-08-02 12:14:00,75.7,68.7,29.84,North,-999,-999.0,-999.0,78,0.00,,,0.00,tws,2013-08-02 16:14:00,
2013-08-02 12:19:00,76.1,69.0,29.84,North,-999,-999.0,-999.0,78,0.00,,,0.00,tws,2013-08-02 16:19:00,
2013-08-02 12:24:00,76.2,68.2,29.85,North,-999,-999.0,-999.0,76,0.00,,,0.00,tws,2013-08-02 16:24:00,
2013-08-02 12:30:00,76.1,67.5,29.84,North,-999,-999.0,-999.0,74,0.00,,,0.00,tws,2013-08-02 16:30:00,
2013-08-02 12:39:00,76.6,67.7,29.84,North,-999,-999.0,-999.0,73,0.00,,,0.00,tws,2013-08-02 16:39:00,
2013-08-02 12:44:00,77.0,68.7,29.85,North,-999,-999.0,-999.0,75,0.00,,,0.00,tws,2013-08-02 16:44:00,
2013-08-02 12:49:00,77.2,67.4,29.85,North,-999,-999.0,-999.0,71,0.00,,,0.00,tws,2013-08-02 16:49:00,
2013-08-02 12:54:00,77.4,68.4,29.85,North,-999,-999.0,-999.0,73,0.00,,,0.00,tws,2013-08-02 16:54:00,
2013-08-02 12:59:00,77.2,67.6,29.84,North,-999,-999.0,-999.0,72,0.00,,,0.00,tws,2013-08-02 16:59:00,
2013-08-02 13:04:00,76.7,67.6,29.84,North,-999,-999.0,-999.0,73,0.00,,,0.00,tws,2013-08-02 17:04:00,
2013-08-02 13:09:00,76.6,67.2,29.84,North,-999,-999.0,-999.0,72,0.00,,,0.00,tws,2013-08-02 17:09:00,
2013-08-02 13:14:00,77.0,68.4,29.84,North,-999,-999.0,-999.0,74,0.00,,,0.00,tws,2013-08-02 17:14:00,
2013-08-02 13:19:00,77.6,69.0,29.84,North,-999,-999.0,-999.0,74,0.12,,,0.01,tws,2013-08-02 17:19:00,
2013-08-02 13:24:00,78.1,68.5,29.84,North,-999,-999.0,-999.0,71,0.00,,,0.01,tws,2013-08-02 17:24:00,
2013-08-02 13:29:00,78.0,66.8,29.84,North,-999,-999.0,-999.0,67,0.00,,,0.01,tws,2013-08-02 17:29:00,
2013-08-02 13:34:00,77.7,66.7,29.84,North,-999,-999.0,-999.0,68,0.00,,,0.01,tws,2013-08-02 17:34:00,
2013-08-02 13:39:00,77.7,67.2,29.84,North,-999,-999.0,-999.0,69,0.00,,,0.01,tws,2013-08-02 17:39:00,
2013-08-02 13:44:00,77.8,67.8,29.84,North,-999,-999.0,-999.0,70,0.00,,,0.01,tws,2013-08-02 17:44:00,
2013-08-02 13:49:00,78.2,67.7,29.84,North,-999,-999.0,-999.0,69,0.00,,,0.01,tws,2013-08-02 17:49:00,
2013-08-02 13:54:00,78.5,67.8,29.83,North,-999,-999.0,-999.0,69,0.00,,,0.01,tws,2013-08-02 17:54:00,
2013-08-02 13:59:00,78.7,66.9,29.83,North,-999,-999.0,-999.0,66,0.00,,,0.01,tws,2013-08-02 17:59:00,
2013-08-02 14:04:00,78.9,66.9,29.83,North,-999,-999.0,-999.0,66,0.00,,,0.01,tws,2013-08-02 18:04:00,
2013-08-02 14:14:00,78.2,66.7,29.83,North,-999,-999.0,-999.0,67,0.00,,,0.01,tws,2013-08-02 18:14:00,
2013-08-02 14:19:00,78.3,66.6,29.83,North,-999,-999.0,-999.0,67,0.00,,,0.01,tws,2013-08-02 18:19:00,
2013-08-02 14:24:00,78.7,65.8,29.83,North,-999,-999.0,-999.0,64,0.00,,,0.01,tws,2013-08-02 18:24:00,
2013-08-02 14:29:00,78.9,65.9,29.83,North,-999,-999.0,-999.0,64,0.00,,,0.01,tws,2013-08-02 18:29:00,
2013-08-02 14:34:00,78.4,66.2,29.83,North,-999,-999.0,-999.0,65,0.00,,,0.01,tws,2013-08-02 18:34:00,
2013-08-02 14:39:00,77.8,65.9,29.83,North,-999,-999.0,-999.0,66,0.00,,,0.01,tws,2013-08-02 18:39:00,
2013-08-02 14:44:00,77.7,66.0,29.83,North,-999,-999.0,-999.0,66,0.00,,,0.01,tws,2013-08-02 18:44:00,
2013-08-02 14:49:00,77.8,65.9,29.83,North,-999,-999.0,-999.0,66,0.00,,,0.01,tws,2013-08-02 18:49:00,
2013-08-02 14:54:00,77.7,66.4,29.83,North,-999,-999.0,-999.0,67,0.00,,,0.01,tws,2013-08-02 18:54:00,
2013-08-02 14:59:00,78.0,67.5,29.83,North,-999,-999.0,-999.0,69,0.00,,,0.01,tws,2013-08-02 18:59:00,
2013-08-02 15:04:00,78.5,67.7,29.83,North,-999,-999.0,-999.0,69,0.00,,,0.01,tws,2013-08-02 19:04:00,
2013-08-02 15:09:00,79.0,67.8,29.83,North,-999,-999.0,-999.0,68,0.00,,,0.01,tws,2013-08-02 19:09:00,
2013-08-02 15:14:00,79.3,66.5,29.83,North,-999,-999.0,-999.0,64,0.00,,,0.01,tws,2013-08-02 19:14:00,
2013-08-02 15:19:00,79.5,66.3,29.83,North,-999,-999.0,-999.0,63,0.00,,,0.01,tws,2013-08-02 19:19:00,
2013-08-02 15:24:00,79.3,66.9,29.83,North,-999,-999.0,-999.0,65,0.00,,,0.01,tws,2013-08-02 19:24:00,
2013-08-02 15:29:00,78.9,66.2,29.83,North,-999,-999.0,-999.0,64,0.00,,,0.01,tws,2013-08-02 19:29:00,
2013-08-02 15:34:00,78.7,66.5,29.83,North,-999,-999.0,-999.0,65,0.00,,,0.01,tws,2013-08-02 19:34:00,
2013-08-02 15:39:00,78.8,66.9,29.82,North,-999,-999.0,-999.0,66,0.00,,,0.01,tws,2013-08-02 19:39:00,
2013-08-02 15:44:00,79.0,66.8,29.82,North,-999,-999.0,-999.0,65,0.00,,,0.01,tws,2013-08-02 19:44:00,
2013-08-02 15:49:00,79.3,66.0,29.82,North,-999,-999.0,-999.0,63,0.00,,,0.01,tws,2013-08-02 19:49:00,
2013-08-02 15:54:00,79.5,65.9,29.83,North,-999,-999.0,-999.0,62,0.00,,,0.01,tws,2013-08-02 19:54:00,
2013-08-02 15:59:00,79.7,66.5,29.82,North,-999,-999.0,-999.0,63,0.00,,,0.01,tws,2013-08-02 19:59:00,
2013-08-02 16:04:00,79.9,66.8,29.82,North,-999,-999.0,-999.0,63,0.00,,,0.01,tws,2013-08-02 20:04:00,
2013-08-02 16:09:00,79.8,67.0,29.82,North,-999,-999.0,-999.0,64,0.00,,,0.01,tws,2013-08-02 20:09:00,
2013-08-02 16:14:00,79.4,67.1,29.82,North,-999,-999.0,-999.0,65,0.00,,,0.01,tws,2013-08-02 20:14:00,
2013-08-02 16:19:00,79.4,67.2,29.82,North,-999,-999.0,-999.0,65,0.00,,,0.01,tws,2013-08-02 20:19:00,
2013-08-02 16:24:00,79.6,67.5,29.82,North,-999,-999.0,-999.0,66,0.00,,,0.01,tws,2013-08-02 20:24:00,
2013-08-02 16:29:00,79.8,67.0,29.82,North,-999,-999.0,-999.0,64,0.00,,,0.01,tws,2013-08-02 20:29:00,
2013-08-02 16:34:00,80.0,66.8,29.82,North,-999,-999.0,-999.0,63,0.00,,,0.01,tws,2013-08-02 20:34:00,
2013-08-02 16:44:00,80.5,66.3,29.82,North,-999,-999.0,-999.0,61,0.00,,,0.01,tws,2013-08-02 20:44:00,
2013-08-02 16:49:00,80.5,66.7,29.82,North,-999,-999.0,-999.0,62,0.00,,,0.01,tws,2013-08-02 20:49:00,
2013-08-02 16:54:00,80.5,66.5,29.82,North,-999,-999.0,-999.0,62,0.00,,,0.01,tws,2013-08-02 20:54:00,
2013-08-02 16:59:00,80.5,66.8,29.81,North,-999,-999.0,-999.0,62,0.00,,,0.01,tws,2013-08-02 20:59:00,
2013-08-02 17:04:00,80.4,66.8,29.82,North,-999,-999.0,-999.0,62,0.00,,,0.01,tws,2013-08-02 21:04:00,
2013-08-02 17:09:00,80.6,67.5,29.82,North,-999,-999.0,-999.0,63,0.00,,,0.01,tws,2013-08-02 21:09:00,
2013-08-02 17:14:00,80.6,67.3,29.82,North,-999,-999.0,-999.0,63,0.00,,,0.01,tws,2013-08-02 21:14:00,
2013-08-02 17:19:00,80.6,67.5,29.82,North,-999,-999.0,-999.0,63,0.00,,,0.01,tws,2013-08-02 21:19:00,
2013-08-02 17:24:00,80.4,67.9,29.82,North,-999,-999.0,-999.0,65,0.00,,,0.01,tws,2013-08-02 21:24:00,
2013-08-02 17:29:00,80.1,68.1,29.82,North,-999,-999.0,-999.0,66,0.00,,,0.01,tws,2013-08-02 21:29:00,
2013-08-02 17:34:00,79.7,69.3,29.82,North,-999,-999.0,-999.0,70,0.00,,,0.01,tws,2013-08-02 21:34:00,
2013-08-02 17:39:00,79.5,70.2,29.82,North,-999,-999.0,-999.0,72,0.00,,,0.01,tws,2013-08-02 21:39:00,
2013-08-02 17:44:00,79.3,70.6,29.81,North,-999,-999.0,-999.0,74,0.00,,,0.01,tws,2013-08-02 21:44:00,
2013-08-02 17:49:00,79.0,70.3,29.82,North,-999,-999.0,-999.0,74,0.00,,,0.01,tws,2013-08-02 21:49:00,
2013-08-02 17:54:00,78.6,70.3,29.82,North,-999,-999.0,-999.0,75,0.00,,,0.01,tws,2013-08-02 21:54:00,
2013-08-02 17:59:00,78.0,70.5,29.82,North,-999,-999.0,-999.0,77,0.00,,,0.01,tws,2013-08-02 21:59:00,
2013-08-02 18:04:00,77.4,70.6,29.82,North,-999,-999.0,-999.0,79,0.00,,,0.01,tws,2013-08-02 22:04:00,
2013-08-02 18:09:00,76.9,70.6,29.81,North,-999,-999.0,-999.0,80,0.00,,,0.01,tws,2013-08-02 22:09:00,
2013-08-02 18:14:00,76.5,70.6,29.81,North,-999,-999.0,-999.0,81,0.00,,,0.01,tws,2013-08-02 22:14:00,
2013-08-02 18:19:00,76.3,70.8,29.81,North,-999,-999.0,-999.0,83,0.00,,,0.01,tws,2013-08-02 22:19:00,
2013-08-02 18:24:00,76.1,70.7,29.81,North,-999,-999.0,-999.0,83,0.00,,,0.01,tws,2013-08-02 22:24:00,
2013-08-02 18:29:00,76.0,70.3,29.82,North,-999,-999.0,-999.0,82,0.00,,,0.01,tws,2013-08-02 22:29:00,
2013-08-02 18:34:00,76.1,70.1,29.81,North,-999,-999.0,-999.0,81,0.00,,,0.01,tws,2013-08-02 22:34:00,
2013-08-02 18:39:00,76.3,70.1,29.82,North,-999,-999.0,-999.0,81,0.00,,,0.01,tws,2013-08-02 22:39:00,
2013-08-02 18:44:00,76.3,70.3,29.81,North,-999,-999.0,-999.0,81,0.00,,,0.01,tws,2013-08-02 22:44:00,
2013-08-02 18:49:00,76.3,70.4,29.82,North,-999,-999.0,-999.0,81,0.00,,,0.01,tws,2013-08-02 22:49:00,
2013-08-02 18:54:00,76.0,70.5,29.82,North,-999,-999.0,-999.0,82,0.00,,,0.01,tws,2013-08-02 22:54:00,
2013-08-02 18:59:00,75.6,70.4,29.81,North,-999,-999.0,-999.0,83,0.00,,,0.01,tws,2013-08-02 22:59:00,
2013-08-02 19:04:00,75.2,70.2,29.81,North,-999,-999.0,-999.0,84,0.00,,,0.01,tws,2013-08-02 23:04:00,
2013-08-02 19:09:00,74.8,70.3,29.81,North,-999,-999.0,-999.0,85,0.00,,,0.01,tws,2013-08-02 23:09:00,
2013-08-02 19:14:00,74.6,70.4,29.81,North,-999,-999.0,-999.0,86,0.00,,,0.01,tws,2013-08-02 23:14:00,
2013-08-02 19:19:00,74.5,70.8,29.81,North,-999,-999.0,-999.0,88,0.00,,,0.01,tws,2013-08-02 23:19:00,
2013-08-02 19:24:00,74.4,70.8,29.82,North,-999,-999.0,-999.0,88,0.00,,,0.01,tws,2013-08-02 23:24:00,
2013-08-02 19:29:00,74.3,70.7,29.82,North,-999,-999.0,-999.0,88,0.00,,,0.01,tws,2013-08-02 23:29:00,
2013-08-02 19:34:00,74.3,70.8,29.82,North,-999,-999.0,-999.0,88,0.00,,,0.01,tws,2013-08-02 23:34:00,
2013-08-02 19:39:00,74.2,70.8,29.82,North,-999,-999.0,-999.0,89,0.00,,,0.01,tws,2013-08-02 23:39:00,
2013-08-02 19:44:00,74.0,70.8,29.82,North,-999,-999.0,-999.0,89,0.00,,,0.01,tws,2013-08-02 23:44:00,
2013-08-02 19:49:00,73.9,70.9,29.82,North,-999,-999.0,-999.0,90,0.00,,,0.01,tws,2013-08-02 23:49:00,
2013-08-02 19:54:00,73.7,71.0,29.82,North,-999,-999.0,-999.0,91,0.00,,,0.01,tws,2013-08-02 23:54:00,
2013-08-02 19:59:00,73.6,71.2,29.82,North,-999,-999.0,-999.0,92,0.00,,,0.01,tws,2013-08-02 23:59:00,
2013-08-02 20:04:00,73.5,71.3,29.82,North,-999,-999.0,-999.0,92,0.00,,,0.01,tws,2013-08-03 00:04:00,
2013-08-02 20:09:00,73.4,71.4,29.82,North,-999,-999.0,-999.0,93,0.00,,,0.01,tws,2013-08-03 00:09:00,
2013-08-02 20:14:00,73.3,71.6,29.83,North,-999,-999.0,-999.0,94,0.00,,,0.01,tws,2013-08-03 00:14:00,
2013-08-02 20:19:00,73.2,71.6,29.83,North,-999,-999.0,-999.0,94,0.00,,,0.01,tws,2013-08-03 00:19:00,
2013-08-02 20:24:00,73.1,71.8,29.83,North,-999,-999.0,-999.0,95,0.00,,,0.01,tws,2013-08-03 00:24:00,
2013-08-02 20:29:00,73.0,71.7,29.83,North,-999,-999.0,-999.0,95,0.00,,,0.01,tws,2013-08-03 00:29:00,
2013-08-02 20:34:00,72.9,71.6,29.83,North,-999,-999.0,-999.0,95,0.00,,,0.01,tws,2013-08-03 00:34:00,
2013-08-02 20:39:00,72.8,71.5,29.83,North,-999,-999.0,-999.0,95,0.00,,,0.01,tws,2013-08-03 00:39:00,
2013-08-02 20:44:00,72.7,71.7,29.83,North,-999,-999.0,-999.0,96,0.00,,,0.01,tws,2013-08-03 00:44:00,
2013-08-02 20:49:00,72.6,71.6,29.83,North,-999,-999.0,-999.0,96,0.00,,,0.01,tws,2013-08-03 00:49:00,
2013-08-02 20:54:00,72.5,71.7,29.83,North,-999,-999.0,-999.0,97,0.00,,,0.01,tws,2013-08-03 00:54:00,
2013-08-02 20:59:00,72.4,71.6,29.83,North,-999,-999.0,-999.0,97,0.00,,,0.01,tws,2013-08-03 00:59:00,
2013-08-02 21:04:00,72.3,71.5,29.84,North,-999,-999.0,-999.0,97,0.00,,,0.01,tws,2013-08-03 01:04:00,
2013-08-02 21:09:00,72.3,71.5,29.84,North,-999,-999.0,-999.0,97,0.00,,,0.01,tws,2013-08-03 01:09:00,
2013-08-02 21:14:00,72.2,71.7,29.84,North,-999,-999.0,-999.0,98,0.00,,,0.01,tws,2013-08-03 01:14:00,
2013-08-02 21:19:00,72.2,71.5,29.84,North,-999,-999.0,-999.0,97,0.00,,,0.01,tws,2013-08-03 01:19:00,
2013-08-02 21:24:00,72.1,71.5,29.84,North,-999,-999.0,-999.0,97,0.00,,,0.01,tws,2013-08-03 01:24:00,
2013-08-02 21:29:00,72.0,71.3,29.84,North,-999,-999.0,-999.0,97,0.00,,,0.01,tws,2013-08-03 01:29:00,
2013-08-02 21:34:00,71.8,71.2,29.84,North,-999,-999.0,-999.0,97,0.00,,,0.01,tws,2013-08-03 01:34:00,
2013-08-02 21:44:00,71.6,71.1,29.84,North,-999,-999.0,-999.0,98,0.00,,,0.01,tws,2013-08-03 01:44:00,
2013-08-02 21:49:00,71.5,70.9,29.84,North,-999,-999.0,-999.0,97,0.00,,,0.01,tws,2013-08-03 01:49:00,
2013-08-02 21:54:00,71.4,70.9,29.85,North,-999,-999.0,-999.0,98,0.00,,,0.01,tws,2013-08-03 01:54:00,
2013-08-02 21:59:00,71.3,70.8,29.85,North,-999,-999.0,-999.0,98,0.00,,,0.01,tws,2013-08-03 01:59:00,
2013-08-02 22:04:00,71.2,70.8,29.86,North,-999,-999.0,-999.0,98,0.00,,,0.01,tws,2013-08-03 02:04:00,
2013-08-02 22:09:00,71.1,70.6,29.86,North,-999,-999.0,-999.0,98,0.00,,,0.01,tws,2013-08-03 02:09:00,
2013-08-02 22:14:00,70.9,70.5,29.86,North,-999,-999.0,-999.0,98,0.00,,,0.01,tws,2013-08-03 02:14:00,
2013-08-02 22:19:00,70.8,70.4,29.86,North,-999,-999.0,-999.0,98,0.00,,,0.01,tws,2013-08-03 02:19:00,
2013-08-02 22:24:00,70.7,70.3,29.86,North,-999,-999.0,-999.0,98,0.00,,,0.01,tws,2013-08-03 02:24:00,
2013-08-02 22:29:00,70.5,70.3,29.86,North,-999,-999.0,-999.0,99,0.00,,,0.01,tws,2013-08-03 02:29:00,
2013-08-02 22:34:00,70.3,70.1,29.86,North,-999,-999.0,-999.0,99,0.00,,,0.01,tws,2013-08-03 02:34:00,
2013-08-02 22:39:00,70.2,70.0,29.86,North,-999,-999.0,-999.0,99,0.00,,,0.01,tws,2013-08-03 02:39:00,
2013-08-02 22:44:00,70.0,69.9,29.86,North,-999,-999.0,-999.0,99,0.00,,,0.01,tws,2013-08-03 02:44:00,
2013-08-02 22:49:00,69.9,69.8,29.86,North,-999,-999.0,-999.0,99,0.00,,,0.01,tws,2013-08-03 02:49:00,
2013-08-02 22:54:00,69.8,69.6,29.86,North,-999,-999.0,-999.0,99,0.00,,,0.01,tws,2013-08-03 02:54:00,
2013-08-02 22:59:00,69.6,69.5,29.86,North,-999,-999.0,-999.0,99,0.00,,,0.01,tws,2013-08-03 02:59:00,
2013-08-02 23:04:00,69.4,69.4,29.85,North,-999,-999.0,-999.0,99,0.00,,,0.01,tws,2013-08-03 03:04:00,
2013-08-02 23:09:00,69.3,69.2,29.85,North,-999,-999.0,-999.0,99,0.00,,,0.01,tws,2013-08-03 03:09:00,
2013-08-02 23:14:00,69.2,69.0,29.86,North,-999,-999.0,-999.0,99,0.00,,,0.01,tws,2013-08-03 03:14:00,
2013-08-02 23:19:00,69.1,69.0,29.86,North,-999,-999.0,-999.0,99,0.00,,,0.01,tws,2013-08-03 03:19:00,
2013-08-02 23:24:00,69.0,68.9,29.86,North,-999,-999.0,-999.0,99,0.00,,,0.01,tws,2013-08-03 03:24:00,
2013-08-02 23:29:00,68.9,68.9,29.86,North,-999,-999.0,-999.0,99,0.00,,,0.01,tws,2013-08-03 03:29:00,
2013-08-02 23:34:00,68.9,69.0,29.86,North,-999,-999.0,-999.0,100,0.00,,,0.01,tws,2013-08-03 03:34:00,
2013-08-02 23:39:00,68.9,68.8,29.86,North,-999,-999.0,-999.0,99,0.00,,,0.01,tws,2013-08-03 03:39:00,
2013-08-02 23:44:00,68.8,68.7,29.86,North,-999,-999.0,-999.0,99,0.00,,,0.01,tws,2013-08-03 03:44:00,
2013-08-02 23:49:00,68.8,68.7,29.86,North,-999,-999.0,-999.0,99,0.00,,,0.01,tws,2013-08-03 03:49:00,
2013-08-02 23:54:00,68.7,68.7,29.86,North,-999,-999.0,-999.0,100,0.00,,,0.01,tws,2013-08-03 03:54:00,
2013-08-02 23:59:00,68.5,68.5,29.86,North,-999,-999.0,-999.0,99,0.00,,,0.00,tws,2013-08-03 03:59:00,